MST,Max TemperatureF,Mean TemperatureF,Min TemperatureF,Max Dew PointF,MeanDew PointF,Min DewpointF,Max Humidity, Mean Humidity, Min Humidity, Max Sea Level PressureIn, Mean Sea Level PressureIn, Min Sea Level PressureIn, Max VisibilityMiles, Mean VisibilityMiles, Min VisibilityMiles, Max Wind SpeedMPH, Mean Wind SpeedMPH, Max Gust SpeedMPH,PrecipitationIn, CloudCover, Events, WindDirDegrees
2013-7-1,111,100,88,65,59,52,44,30,15,29.78,29.72,29.65,10,10,6,31,9,36,0.00,4,,182
2013-7-2,111,98,85,68,59,50,55,35,14,29.92,29.78,29.69,10,9,2,29,12,37,0.00,5,,188
2013-7-3,112,98,84,59,54,45,41,27,12,29.76,29.68,29.59,10,10,10,18,8,22,T,5,Rain,200
2013-7-4,108,97,86,66,62,56,51,35,18,29.71,29.65,29.58,10,8,2,31,17,39,0.00,3,,169
2013-7-5,105,95,85,67,57,44,55,35,14,29.73,29.67,29.61,10,10,10,21,11,26,0.00,5,,165
2013-7-6,108,96,84,56,48,42,32,22,11,29.70,29.64,29.56,10,10,10,15,6,20,0.00,3,,188
2013-7-7,114,99,83,60,48,41,34,22,9,29.69,29.64,29.57,10,10,10,13,5,16,0.00,2,,226
2013-7-8,111,97,83,66,58,51,47,31,15,29.82,29.74,29.67,10,10,10,18,9,21,0.00,4,,183
2013-7-9,105,95,85,72,67,62,61,44,27,29.95,29.87,29.80,10,9,4,32,17,38,0.00,6,,173
2013-7-10,102,92,82,72,66,60,65,46,27,29.91,29.85,29.77,10,9,3,36,15,41,0.00,6,,180
2013-7-11,102,92,82,69,65,56,58,40,21,29.87,29.81,29.75,10,10,7,17,9,24,0.00,5,Thunderstorm,123
2013-7-12,105,94,82,69,60,55,61,41,20,29.83,29.77,29.69,10,10,10,17,6,21,0.00,3,,190
2013-7-13,108,96,84,64,58,55,43,31,19,29.84,29.77,29.69,10,10,10,16,7,18,0.00,4,,184
2013-7-14,110,99,88,64,60,57,44,32,19,29.81,29.74,29.65,10,10,10,18,7,22,0.00,5,,176
2013-7-15,113,101,88,62,57,49,43,28,13,29.73,29.67,29.57,10,10,9,18,8,30,0.00,4,,203
2013-7-16,106,96,85,65,50,33,41,25,9,29.84,29.76,29.69,10,10,10,16,6,25,0.00,6,,200
2013-7-17,108,97,85,62,51,35,44,28,12,29.91,29.83,29.76,10,10,10,12,4,14,0.00,6,,252
2013-7-18,111,99,87,70,54,46,30,21,12,29.83,29.76,29.67,10,10,10,22,7,25,T,5,Thunderstorm,211
2013-7-19,99,92,85,75,69,64,70,53,35,29.85,29.77,29.71,10,10,10,23,15,26,0.00,5,,172
2013-7-20,99,90,80,74,69,65,79,56,33,29.83,29.76,29.68,10,10,10,18,9,22,T,6,Rain,174
2013-7-21,90,83,76,74,72,66,88,67,46,29.86,29.80,29.73,10,9,2,23,9,28,0.47,6,Rain-Thunderstorm,134
2013-7-22,98,89,79,75,69,61,85,57,29,29.91,29.85,29.80,10,10,6,17,5,21,0.00,3,,195
2013-7-23,103,93,82,73,66,60,74,50,25,29.90,29.83,29.74,10,10,10,15,7,17,0.00,0,,176
2013-7-24,107,97,86,66,62,59,50,37,23,29.83,29.77,29.68,10,10,10,15,7,18,0.00,1,,194
2013-7-25,101,92,83,73,65,53,61,45,28,29.91,29.83,29.76,10,10,6,7,5,8,T,5,Rain-Thunderstorm,136
2013-7-26,107,98,88,67,60,53,50,35,19,29.95,29.88,29.82,10,10,10,16,7,18,0.00,5,,183
2013-7-27,109,99,88,63,58,52,41,30,18,29.87,29.79,29.67,10,10,10,18,7,22,0.00,3,,185
2013-7-28,109,98,86,61,47,34,40,26,11,29.75,29.70,29.62,10,10,10,18,6,26,0.00,1,,239
2013-7-29,107,94,81,65,52,40,46,32,17,29.86,29.80,29.73,10,10,10,22,9,25,0.00,1,,164
2013-7-30,107,97,87,59,53,49,39,28,16,29.96,29.90,29.85,10,10,10,21,12,24,0.00,2,,166
2013-7-31,110,98,85,57,50,39,35,23,11,29.94,29.85,29.76,10,10,10,14,5,20,0.00,4,,179